GW2722 Weather Reports


Display with metric or nautical units.
time (UTC)temp
F
wind
direction
speed
MPH
gust
MPH
rain 1hr
in
rain 24hr
in
rain mn
in
humidity
%
barometer
mb
20240620151600 84 5 1.0 4.0 0.00 0.00 0.00 64 1027.2
20240620150057 84 91 1.0 5.0 0.00 0.00 0.00 65 1027.1
20240620144624 82 228 1.0 5.0 0.00 0.00 0.00 69 1027.2
20240620143107 81 175 0.0 3.0 0.00 0.00 0.00 72 1027.1
20240620141559 80 0 0.0 3.0 0.00 0.00 0.00 74 1027.3
20240620140059 79 106 0.0 2.0 0.00 0.00 0.00 77 1027.1
20240620134603 78 0 0.0 2.0 0.00 0.00 0.00 80 1027.1
20240620133112 77 0 0.0 2.0 0.00 0.00 0.00 86 1027.1
20240620131615 75 0 0.0 2.0 0.00 0.00 0.00 88 1027.1
20240620130059 74 360 0.0 1.0 0.00 0.00 0.00 94 1026.9
20240620124557 73 0 0.0 1.0 0.00 0.00 0.00 96 1026.7
20240620123106 71 0 0.0 0.0 0.00 0.00 0.00 97 1026.8
20240620121556 70 0 0.0 1.0 0.00 0.00 0.00 97 1026.7
20240620120059 70 0 0.0 1.0 0.00 0.00 0.00 98 1026.6
20240620114559 68 0 0.0 0.0 0.00 0.00 0.00 97 1026.6
20240620113057 67 0 0.0 0.0 0.00 0.00 0.00 97 1026.6
20240620111559 67 0 0.0 0.0 0.00 0.00 0.00 97 1026.5
20240620110108 66 0 0.0 0.0 0.00 0.00 0.00 97 1026.5
20240620104557 66 0 0.0 0.0 0.00 0.00 0.00 97 1026.3
20240620103059 66 0 0.0 0.0 0.00 0.00 0.00 97 1026.2
20240620101603 66 0 0.0 0.0 0.00 0.00 0.00 96 1026.2
20240620100123 66 0 0.0 0.0 0.00 0.00 0.00 97 1026.1
20240620094628 66 0 0.0 0.0 0.00 0.00 0.00 97 1026.0
20240620093107 66 0 0.0 0.0 0.00 0.00 0.00 96 1025.9
20240620091558 66 0 0.0 0.0 0.00 0.00 0.00 96 1025.9
20240620090058 66 0 0.0 0.0 0.00 0.00 0.00 96 1025.8
20240620084602 66 0 0.0 0.0 0.00 0.00 0.00 96 1025.8
20240620083101 66 0 0.0 0.0 0.00 0.00 0.00 96 1025.8
20240620081558 67 0 0.0 0.0 0.00 0.00 0.00 96 1025.8
20240620080111 67 0 0.0 0.0 0.00 0.00 0.00 96 1025.8
20240620074558 67 0 0.0 0.0 0.00 0.00 0.00 96 1025.7
20240620073058 67 0 0.0 0.0 0.00 0.00 0.00 95 1025.8
20240620071600 67 0 0.0 0.0 0.00 0.00 0.00 95 1025.6
20240620070101 68 0 0.0 0.0 0.00 0.00 0.00 95 1025.7
20240620064603 68 0 0.0 0.0 0.00 0.00 0.00 95 1025.6
20240620063057 68 0 0.0 0.0 0.00 0.00 0.00 95 1025.6
20240620061606 69 0 0.0 0.0 0.00 0.00 0.00 95 1025.7
20240620060058 69 0 0.0 0.0 0.00 0.00 0.00 95 1025.7
20240620054557 69 0 0.0 0.0 0.00 0.00 0.00 95 1025.7
20240620053058 69 0 0.0 0.0 0.00 0.00 0.00 95 1025.6
20240620051607 70 0 0.0 0.0 0.00 0.00 0.00 94 1025.6
20240620050150 70 0 0.0 0.0 0.00 0.00 0.00 94 1025.6
20240620044559 70 0 0.0 0.0 0.00 0.00 0.00 94 1025.5
20240620043057 70 0 0.0 0.0 0.00 0.00 0.00 94 1025.6
20240620041559 71 0 0.0 0.0 0.00 0.00 0.00 93 1025.6
20240620040058 71 0 0.0 0.0 0.00 0.00 0.00 93 1025.6
20240620034559 72 0 0.0 0.0 0.00 0.00 0.00 93 1025.5
20240620033101 72 0 0.0 0.0 0.00 0.00 0.00 92 1025.4
20240620031558 73 0 0.0 2.0 0.00 0.00 0.00 92 1025.3
20240620030111 73 0 0.0 0.0 0.00 0.00 0.00 91 1025.3
20240620024559 74 111 0.0 1.0 0.00 0.00 0.00 91 1025.1
20240620023056 74 0 0.0 0.0 0.00 0.00 0.00 89 1025.0
20240620021559 75 0 0.0 1.0 0.00 0.00 0.00 88 1024.8
20240620020057 76 0 0.0 0.0 0.00 0.00 0.00 87 1024.7
20240620014601 76 0 0.0 1.0 0.00 0.00 0.00 86 1024.4
20240620013100 77 0 0.0 0.0 0.00 0.00 0.00 85 1024.2
20240620011557 78 0 0.0 0.0 0.00 0.00 0.00 83 1024.2
20240620010104 79 0 0.0 1.0 0.00 0.00 0.00 81 1024.2
20240620004557 80 0 0.0 2.0 0.00 0.00 0.00 80 1024.1
20240620003055 81 0 0.0 1.0 0.00 0.00 0.00 80 1024.1
20240620001611 82 329 0.0 1.0 0.00 0.00 0.00 77 1024.2
20240620000056 81 0 0.0 2.0 0.00 0.00 0.00 79 1024.0
20240619234556 82 0 0.0 0.0 0.00 0.00 0.00 79 1024.2
20240619233110 84 0 0.0 1.0 0.00 0.00 0.00 75 1024.3
20240619231600 84 0 0.0 1.0 0.00 0.00 0.00 73 1024.2
20240619230121 85 0 0.0 0.0 0.00 0.00 0.00 70 1024.3
20240619224559 85 0 0.0 2.0 0.00 0.00 0.00 65 1024.3
20240619223114 85 0 1.0 4.0 0.00 0.00 0.00 62 1024.1
20240619221604 85 0 1.0 4.0 0.00 0.00 0.00 67 1024.3
20240619220100 84 0 0.0 2.0 0.00 0.00 0.00 72 1024.3
20240619214559 84 288 0.0 3.0 0.00 0.00 0.00 68 1024.3
20240619213104 84 327 1.0 3.0 0.00 0.00 0.00 67 1024.5
20240619211619 85 292 0.0 2.0 0.00 0.00 0.00 64 1024.5
20240619210100 85 115 1.0 4.0 0.00 0.00 0.00 61 1024.5
20240619204628 85 340 0.0 7.0 0.00 0.00 0.00 63 1024.7
20240619203102 85 330 0.0 5.0 0.00 0.00 0.00 66 1024.7
20240619201559 84 342 2.0 8.0 0.00 0.00 0.00 62 1024.8
20240619200058 84 5 2.0 8.0 0.00 0.00 0.00 62 1024.8
20240619194606 84 293 2.0 5.0 0.00 0.00 0.00 62 1024.8
20240619193058 83 355 3.0 5.0 0.00 0.00 0.00 63 1024.8
20240619191605 83 313 2.0 7.0 0.00 0.00 0.00 64 1025.0
20240619190100 84 67 3.0 8.0 0.00 0.00 0.00 62 1025.0
20240619184603 84 308 1.0 9.0 0.00 0.00 0.00 67 1025.2
20240619183057 84 23 2.0 9.0 0.00 0.00 0.00 63 1025.3
20240619181602 84 136 1.0 8.0 0.00 0.00 0.00 64 1025.3
20240619180105 84 0 3.0 9.0 0.00 0.00 0.00 63 1025.3
20240619174602 83 13 4.0 11.0 0.00 0.00 0.00 66 1025.3
20240619173100 84 27 3.0 7.0 0.00 0.00 0.00 68 1025.3
20240619171601 85 48 2.0 8.0 0.00 0.00 0.00 70 1025.4
20240619170059 83 136 1.0 9.0 0.00 0.00 0.00 75 1025.5
20240619164602 82 336 4.0 10.0 0.00 0.00 0.00 75 1025.6
20240619163126 82 0 2.0 9.0 0.00 0.00 0.00 78 1025.5
20240619161601 82 355 2.0 8.0 0.00 0.00 0.00 78 1025.5
20240619160059 82 319 3.0 8.0 0.00 0.00 0.00 76 1025.5
20240619154609 82 53 3.0 10.0 0.00 0.00 0.00 78 1025.6
20240619153101 82 342 6.0 13.0 0.00 0.00 0.00 77 1025.5